This is the latest recevied weather packets stored in our database for station/object KC0RPY. If no packets are shown the sender has not sent any weather packets the latest 10 day(s).
| Time | Temp. | Humidity | Pressure | Rain* | Wind** | Luminosity | Snow |
|---|---|---|---|---|---|---|---|
| 1777496644 | 16.11° C | 54% | 1019.5 hPa | 0 mm | - | 572 W/m² | - |
| 1777496340 | 16.67° C | 53% | 1019.5 hPa | 0 mm | - | 636 W/m² | - |
| 1777496036 | 15.56° C | 54% | 1019.5 hPa | 0 mm | - | 559 W/m² | - |
| 1777495732 | 16.67° C | 52% | 1019.5 hPa | 0 mm | - | 205 W/m² | - |
| 1777495429 | 16.11° C | 52% | 1019.5 hPa | 0 mm | - | 573 W/m² | - |
| 1777495125 | 16.11° C | 55% | 1019.5 hPa | 0 mm | - | 442 W/m² | - |
| 1777494823 | 16.11° C | 54% | 1019.5 hPa | 0 mm | - | 560 W/m² | - |
| 1777494519 | 15.56° C | 53% | 1019.8 hPa | 0 mm | - | 636 W/m² | - |
| 1777494217 | 15.56° C | 55% | 1020.2 hPa | 0 mm | - | 627 W/m² | - |
| 1777493914 | 15° C | 55% | 1020.2 hPa | 0 mm | - | 540 W/m² | - |
| 1777493612 | 15.56° C | 54% | 1020.2 hPa | 0 mm | - | 538 W/m² | - |
| 1777493309 | 15° C | 56% | 1020.2 hPa | 0 mm | - | 481 W/m² | - |
| 1777493005 | 15° C | 55% | 1020.5 hPa | 0 mm | - | 443 W/m² | - |
| 1777492702 | 15° C | 56% | 1020.5 hPa | 0 mm | - | 386 W/m² | - |
| 1777492402 | 15° C | 56% | 1020.5 hPa | 0 mm | - | 350 W/m² | - |
| 1777492100 | 14.44° C | 57% | 1020.5 hPa | 0 mm | - | 294 W/m² | - |
| 1777491797 | 15° C | 58% | 1020.5 hPa | 0 mm | - | 316 W/m² | - |
| 1777491493 | 14.44° C | 58% | 1020.5 hPa | 0 mm | - | 319 W/m² | - |
| 1777491191 | 15° C | 58% | 1020.5 hPa | 0 mm | - | 314 W/m² | - |
| 1777490886 | 15° C | 57% | 1020.5 hPa | 0 mm | - | 315 W/m² | - |
| 1777490583 | 14.44° C | 58% | 1020.2 hPa | 0 mm | - | 305 W/m² | - |
| 1777490278 | 14.44° C | 57% | 1020.5 hPa | 0 mm | - | 278 W/m² | - |
| 1777489976 | 14.44° C | 58% | 1020.5 hPa | 0 mm | - | 286 W/m² | - |
| 1777489674 | 15° C | 59% | 1020.5 hPa | 0 mm | - | 314 W/m² | - |
| 1777489370 | 15° C | 57% | 1020.5 hPa | 0 mm | - | 363 W/m² | - |
* Rain latest hour (hover to see other rain measurements)
** Current wind speed in m/s (hover to see current wind gust speed)